Torna al catalogo

PSLV R/B

AttivoSSO
NORAD 39093·ROCKET BODY·🇮🇳 India

Lanciato Feb 25, 2013 da Satish Dhawan Space Centre

Loading…

Prossimi Passaggi (prossime 24 ore)

TLE

AggiornatoSource: Space-Track

Epoca: Sep 14, 2026, 00:26 UTC

1 39093U 13009H   26257.01831367  .00000202  00000-0  63866-4 0  9995
2 39093  98.0469  95.5632 0044814 123.9764 236.5701 14.48768994715552

Traccia PSLV R/B in tempo reale con AllMySat

Download on the App Store